Kosmos-711

operational
NORAD ID: 7678 Int'l Des: 1975-016 Owner: GUKOSR Country: SU
LEOCIRCULAR

关于 Kosmos-711

正在加载描述...

实时位置

正在加载3D地球...

即将过境

高度历史

Altitude vs Time

uPlot chart will show altitude changes over time

两行轨道根数

1 07678U 75016A 26062.55639262 -.00000036 00000-0 -14144-3 0 9999
2 07678 74.0032 199.4406 0019173 77.7427 354.9449 12.47083802322161
Epoch: Mar 3, 2026 • Age: 28 hours

当前状态

高度 1482.6 km
速度 7.12 km/s
星下点 -14.65°S, 31.9°W
类型 other

大型星座

Loading constellations...